User: anonymous   Login
Location: Unspecified
(0.0000°N, 0.0000°E)
Time: 18:54:54
(UTC+02:00)
Language:

CZ-4 R/B - Orbit

View from above orbital plane
View from above orbital plane
View from above satellite
View from above satellite

Ground track
Ground track

The orbit data is extracted from the following two-line orbital elements,

1 28059U 03049C   15240.58933698  .00000055  00000-0  25280-4 0  9994
2 28059 098.6524 098.8479 0051464 093.3910 349.2358 14.52372491628075
Epoch (UTC): 28 August 2015 14:08:38
Eccentricity: 0.0051464
inclination: 98.6524°
perigee height: 681 km
apogee height: 754 km
right ascension of ascending node: 98.8479°
argument of perigee: 93.3910°
revolutions per day: 14.52372491
mean anomaly at epoch: 349.2358°
orbit number at epoch: 62807

The dashed part of the orbit path shows where the satellite is in the earth's shadow,  

DLR